Location: Normandy Village
(37.8755°N, 122.2655°W)
Time: 12:12:01
(UTC+00:00)

ATLAS 3B R/B - Pass Details

Date: 06 December 2019
Orbit: 1027 x 1168 km, 63.8° (Epoch: 16 January)

Event Time Altitude Azimuth Distance (km) Brightness Sun altitude
Rises 01:15:01 0° 330° (NNW) 3,798 5.7 -5.3°
Reaches altitude 10° 01:17:40 10° 335° (NNW) 2,854 5.0 -5.8°
Maximum altitude 01:24:19 59° 54° (NE) 1,218 2.8 -7.0°
Drops below altitude 10° 01:31:07 10° 133° (SE) 2,927 4.8 -8.2°
Sets 01:33:52 0° 137° (SE) 3,902 5.4 -8.7°
